Theta_e
317 316 316 317 316 316 318 318 319 320 320 318 318 318 318 322 321 320 318 325 336 339 339 340 342 340 341 341 341 341 340 344 345 343 342 345 344 343 339 331 324 319 318 316 315 314 315 315 317 319 319 318 316 317 317 317 318 318 319 321 323 325 327 328 326 326 325 326 328 327 322 316 312 312 312 311 312 318 329 337 338 338 336 333 332 332 332 332 332 331 330 329 327 326 325 326 327
316 316 316 316 316 317 318 319 321 320 320 318 317 318 318 321 321 320 318 330 344 343 340 340 341 340 340 341 339 339 339 341 341 340 341 343 344 343 335 329 325 322 320 317 315 314 315 315 317 319 318 317 316 316 317 317 318 319 321 322 324 325 326 326 324 323 322 323 324 322 317 313 311 310 309 309 309 314 324 334 336 336 335 333 332 331 331 331 330 328 325 322 319 317 316 317 317
315 316 315 315 316 317 319 319 322 319 316 316 316 318 319 319 319 320 320 333 345 342 342 341 340 342 342 342 339 341 342 343 342 340 343 344 345 342 336 331 331 330 325 319 315 315 315 316 317 319 318 317 316 316 317 318 320 321 323 323 324 325 325 324 322 320 318 318 319 318 314 311 309 308 308 308 308 310 318 329 334 335 334 332 330 329 328 328 326 321 317 314 312 311 311 311 310
314 315 314 315 316 317 321 321 325 320 315 317 316 318 319 320 320 319 319 328 338 338 340 339 340 342 343 344 341 345 343 342 343 341 343 344 344 343 339 336 337 337 333 324 315 314 315 316 317 318 319 317 316 317 318 320 321 323 324 324 324 323 324 322 319 317 315 315 315 314 311 309 309 309 309 308 308 308 313 324 332 333 332 331 328 327 326 323 319 314 311 310 310 311 311 310 310
314 314 314 314 316 318 321 320 322 319 315 319 317 319 321 320 320 319 318 321 325 330 332 334 343 343 343 345 343 349 347 342 343 342 342 344 345 344 342 341 342 341 340 331 317 315 315 315 318 318 318 317 316 317 319 322 323 324 325 324 323 322 322 320 317 315 313 312 311 310 310 309 310 309 309 309 309 308 310 318 327 330 330 329 326 324 321 318 313 310 310 310 311 312 311 311 316
313 314 313 314 316 316 318 316 317 318 317 321 319 319 320 318 319 318 317 319 319 322 321 325 341 344 344 346 344 348 348 345 344 342 342 344 346 344 344 344 345 344 342 334 320 314 315 316 318 318 318 317 316 317 321 323 323 325 325 325 323 321 320 318 315 312 311 310 310 309 310 310 310 309 309 309 309 309 309 312 320 326 327 326 323 320 316 313 311 310 310 310 313 313 312 316 323
313 314 314 315 316 316 320 318 316 318 317 318 318 319 319 318 317 317 317 318 318 321 322 328 340 344 347 347 346 348 347 347 346 343 342 344 347 346 346 346 346 346 342 335 321 314 315 316 318 318 318 317 316 319 323 324 324 325 326 326 323 320 318 315 313 311 310 310 310 310 310 310 310 310 309 309 309 310 310 310 315 321 323 322 319 316 314 311 310 310 310 310 314 315 317 322 327
312 314 315 317 318 316 320 319 315 317 316 316 317 317 318 318 316 317 317 317 318 321 328 337 341 344 349 348 347 349 347 347 346 344 343 343 347 348 347 347 347 346 343 335 322 314 315 315 318 319 318 317 317 320 324 324 324 325 325 325 323 319 316 314 311 310 310 310 310 311 311 311 310 310 310 310 311 310 311 311 313 317 318 317 315 314 313 311 310 310 311 310 313 317 321 324 326
312 315 316 318 319 317 318 318 316 315 316 316 316 316 316 317 317 317 317 317 316 320 329 332 335 341 346 347 347 348 348 348 347 345 342 343 347 348 347 346 347 346 342 334 321 314 314 316 318 318 318 317 318 322 325 325 325 325 326 325 323 318 316 313 310 310 310 310 311 311 311 311 311 310 311 310 311 312 312 311 312 314 314 314 314 314 312 311 310 311 311 311 311 316 322 324 325
312 315 317 318 318 317 316 317 317 316 317 316 315 316 315 317 316 316 316 317 316 321 327 329 336 340 345 349 349 348 348 349 348 346 343 345 348 347 347 346 346 345 342 331 318 314 315 316 318 318 318 317 320 324 325 326 327 326 326 325 321 319 316 312 310 310 310 310 310 311 312 312 311 311 311 311 311 312 312 312 312 313 313 314 314 313 312 310 311 311 311 311 311 312 317 323 326
314 316 315 317 317 316 315 316 317 317 317 315 315 315 316 316 315 315 316 316 316 320 325 336 343 341 348 351 349 349 348 349 349 346 345 346 348 348 348 346 344 343 340 329 316 313 315 316 318 318 317 318 322 325 326 327 327 326 326 324 321 319 316 311 310 310 310 310 310 311 311 311 312 312 312 312 312 312 312 313 313 313 313 313 313 312 311 311 311 311 312 312 312 311 312 316 321
317 317 317 319 318 316 316 315 315 316 316 315 315 316 317 316 316 316 316 316 316 324 328 336 340 341 355 354 348 349 349 349 349 345 345 347 347 348 347 345 342 336 332 324 315 314 315 317 318 317 317 319 324 326 327 327 327 327 327 324 323 320 315 310 310 310 310 310 311 311 311 311 312 312 312 312 312 313 313 313 313 313 313 312 312 311 311 311 312 312 312 312 312 313 313 312 314
317 316 318 320 318 316 316 315 317 318 317 316 315 316 318 315 316 316 317 315 316 329 331 330 334 342 355 353 348 349 349 348 348 346 346 346 347 346 345 343 338 330 324 319 314 314 315 317 317 317 318 321 326 327 327 328 328 328 327 325 324 320 313 310 310 310 310 310 310 311 311 311 311 312 312 312 312 312 313 313 313 314 314 313 312 312 312 312 313 313 313 314 313 313 313 313 313
316 314 316 318 316 316 315 315 316 317 316 316 315 316 317 315 317 316 316 315 315 326 327 328 334 343 352 350 348 347 348 348 346 346 346 346 346 345 344 340 333 326 320 315 314 314 315 317 317 317 319 323 327 327 327 328 329 329 328 326 323 319 313 310 310 310 310 310 311 311 311 312 312 312 312 312 312 312 312 312 313 314 314 314 314 314 314 314 315 315 315 316 316 316 315 315 315
314 314 317 318 316 315 314 315 315 314 314 315 315 315 316 315 317 316 316 316 317 325 329 337 340 343 352 352 351 347 347 347 346 346 346 346 346 344 341 336 329 322 317 314 313 315 316 317 317 317 320 325 326 327 328 329 330 330 328 326 324 320 314 311 309 309 310 310 310 311 311 312 312 312 312 312 312 312 312 312 312 312 313 314 314 315 315 316 316 317 317 318 318 318 318 318 318
314 314 316 317 317 316 313 314 315 314 315 316 315 315 315 315 316 317 317 316 323 335 339 345 344 341 346 347 345 346 348 348 346 346 346 346 345 341 337 332 326 319 314 313 313 315 316 317 317 318 323 325 326 327 328 329 330 330 328 326 324 322 317 312 310 309 309 310 310 310 311 311 311 311 311 311 311 312 312 311 311 311 312 311 312 313 313 314 315 316 316 316 316 316 316 316 316
313 314 316 316 316 316 314 315 314 315 317 316 315 314 315 316 317 317 319 319 330 342 342 345 345 342 341 342 339 342 348 347 346 346 346 345 343 338 332 328 323 316 313 313 314 315 316 317 317 320 323 325 325 327 328 328 329 330 329 327 325 323 319 314 310 309 309 309 310 310 311 311 312 312 312 312 313 313 314 315 315 315 314 314 315 315 313 313 313 313 313 314 315 315 316 316 316
313 316 316 315 315 315 315 315 313 314 317 316 314 315 315 316 317 316 321 332 340 342 343 344 345 343 343 344 341 342 347 347 347 346 346 344 342 337 330 327 322 316 313 312 313 315 316 317 318 320 323 324 325 327 327 327 328 329 328 326 325 323 320 315 311 310 309 310 312 315 318 318 316 315 314 315 317 320 323 326 327 326 326 326 326 326 324 323 321 321 323 325 326 326 326 326 326
314 317 316 314 315 314 314 315 313 314 316 315 314 315 315 315 317 315 320 333 343 345 347 347 346 346 346 346 344 344 347 347 347 346 346 345 344 340 333 328 321 317 315 313 313 315 315 317 318 320 322 324 325 326 327 326 327 327 327 326 324 323 319 315 312 311 311 315 321 321 321 321 318 315 317 321 324 328 332 334 334 334 334 333 333 333 333 332 331 330 332 334 334 334 333 333 333
315 316 316 314 314 313 313 314 314 315 315 314 313 314 315 315 316 317 316 325 340 347 349 348 348 349 348 346 345 345 347 347 346 346 346 346 345 343 339 332 323 320 318 316 315 314 315 316 317 319 321 323 324 325 326 326 326 326 326 325 324 322 318 315 313 313 317 324 328 324 318 317 316 316 322 329 332 334 335 335 335 334 334 334 334 334 334 334 335 334 334 334 334 335 335 335 334
315 315 317 315 313 313 314 314 315 315 315 313 314 314 315 316 316 317 316 319 331 337 342 346 346 348 348 347 346 345 347 346 345 345 345 344 344 342 340 335 327 324 323 322 319 316 315 316 317 319 321 323 323 325 326 326 326 326 326 325 324 320 318 316 316 320 326 330 331 328 322 317 316 322 330 334 335 335 335 334 334 334 334 334 334 334 334 334 334 334 333 333 333 333 333 333 333
315 315 316 315 313 313 314 315 315 315 315 314 313 314 315 316 316 317 316 317 321 324 329 336 341 346 346 346 346 346 346 345 343 343 343 343 342 342 340 336 331 329 330 330 327 321 316 315 317 318 320 322 323 325 326 326 325 326 326 324 322 319 318 320 323 327 329 331 329 327 324 319 320 329 335 335 335 335 335 334 334 334 333 334 334 333 333 332 332 332 331 331 331 331 330 330 331
316 315 314 316 315 314 315 315 315 315 315 314 313 315 316 315 316 316 316 317 318 318 319 328 338 342 341 342 345 346 345 343 343 342 342 343 343 343 342 338 336 337 335 333 329 322 316 315 316 318 319 320 322 324 326 325 324 326 326 323 321 318 320 325 327 327 328 330 326 322 321 322 327 334 336 335 335 335 334 334 334 334 333 333 332 331 331 331 329 328 329 329 329 328 328 327 327
315 315 313 315 315 314 316 316 316 316 315 315 314 315 316 316 317 317 317 317 318 319 319 330 341 343 342 344 346 345 344 343 343 342 343 344 345 345 344 341 340 340 337 333 327 319 314 315 316 317 318 319 321 323 324 324 324 326 325 321 320 319 323 327 327 328 330 330 325 320 320 326 333 336 336 335 335 334 334 335 334 334 333 332 332 331 331 331 329 328 328 329 329 328 327 327 327
313 314 313 314 315 314 316 316 316 316 315 316 316 315 315 316 316 315 317 317 319 321 326 337 344 346 346 347 346 346 345 344 344 344 345 345 346 345 343 342 340 340 339 335 328 319 314 314 314 316 317 318 319 320 323 324 324 325 323 321 321 321 324 329 331 332 332 330 324 320 322 330 334 335 336 336 335 336 336 336 335 335 333 332 332 332 332 331 329 328 328 329 328 328 328 328 328
313 313 313 313 314 314 315 315 316 316 316 316 316 315 316 317 316 316 317 319 323 327 334 344 347 348 348 347 347 346 346 345 345 345 345 345 345 344 342 341 340 341 339 334 328 320 314 313 314 315 315 317 318 319 321 322 323 323 322 322 324 325 328 332 334 333 330 326 321 319 325 332 334 334 337 337 337 337 338 337 336 334 332 331 331 331 331 330 328 327 328 328 328 328 328 328 328
312 312 312 313 313 314 314 314 314 315 315 315 316 316 317 316 316 318 317 322 330 338 345 348 349 349 347 347 347 347 346 346 345 345 345 344 344 343 341 340 340 338 333 328 324 319 315 314 313 313 314 315 317 318 321 322 322 323 323 323 325 330 333 334 333 329 325 322 320 320 325 330 334 335 337 337 338 338 338 337 335 332 331 332 331 331 331 330 328 327 327 327 325 325 326 326 325
312 312 312 312 312 312 313 313 313 314 315 315 316 316 316 315 316 317 317 329 338 344 347 349 349 348 347 347 347 346 346 345 345 345 345 345 344 344 342 342 340 336 331 326 324 325 324 322 318 315 314 314 315 316 319 321 321 323 324 323 328 334 334 333 330 325 322 323 325 325 324 326 333 337 337 337 338 337 337 336 334 332 332 333 333 332 331 330 328 327 327 326 325 325 326 325 325
311 312 312 312 313 312 312 312 312 313 314 316 315 315 315 314 318 316 318 335 344 345 347 349 347 347 346 346 346 344 345 345 345 345 344 344 344 344 342 342 341 337 331 327 329 334 335 331 323 318 315 314 314 314 317 320 321 324 324 325 330 334 333 332 329 324 325 329 331 330 327 327 334 337 337 337 337 337 336 335 333 332 332 333 334 332 331 330 328 327 327 327 327 326 326 325 324
311 311 312 313 313 313 312 311 312 313 312 315 315 314 317 317 317 315 322 338 347 347 347 347 346 345 344 346 344 344 345 345 346 344 344 343 343 343 340 340 341 339 334 329 333 338 338 335 327 322 320 317 315 314 316 318 321 324 325 328 332 334 333 330 328 326 329 332 333 334 334 334 336 337 337 337 336 335 334 333 332 333 333 334 334 333 331 330 329 328 328 327 326 325 324 323 322
311 312 312 313 313 315 315 311 312 313 312 314 315 314 316 319 318 314 323 338 347 346 345 344 344 344 343 345 345 344 345 345 346 345 344 343 341 341 340 340 340 339 337 334 336 338 338 338 334 329 324 320 317 315 315 318 322 325 328 331 332 334 332 329 329 329 331 332 333 336 338 337 337 336 337 337 334 333 334 334 333 333 334 334 334 333 332 331 329 329 327 326 326 325 324 323 322
311 312 313 312 313 316 316 312 312 314 313 314 315 315 316 319 320 314 318 335 347 345 344 343 343 344 344 345 344 344 345 345 346 345 345 343 340 338 339 341 340 339 340 338 338 339 339 339 337 332 326 321 317 317 318 320 324 328 330 331 332 333 332 331 331 332 333 332 332 336 338 336 336 337 337 335 333 334 335 335 334 333 334 334 333 332 332 330 329 327 326 325 325 324 324 323 322
311 312 315 313 312 313 315 313 312 312 313 314 314 317 319 318 319 316 318 336 347 344 343 342 342 344 344 344 344 344 345 344 345 345 345 343 340 337 338 341 341 340 340 340 339 339 339 339 337 332 330 326 321 322 325 325 328 331 332 330 330 332 332 333 334 334 334 331 332 336 336 335 336 337 336 335 335 336 336 336 335 334 334 333 331 331 331 329 326 325 324 325 325 324 324 323 324
312 311 314 314 313 312 313 314 313 311 313 314 313 317 319 321 327 323 323 338 344 344 343 342 342 343 343 343 342 344 345 344 345 345 345 343 341 338 338 341 341 341 341 341 340 338 338 339 337 334 333 332 328 328 328 329 331 333 334 331 331 332 333 335 335 335 333 331 334 336 334 335 336 336 336 336 336 337 336 336 335 334 334 333 331 331 329 326 323 322 323 324 324 325 325 325 326
312 313 313 313 313 312 312 314 314 313 313 313 313 316 315 324 339 332 330 340 342 343 343 341 342 341 341 341 341 343 344 344 344 345 345 343 342 340 339 341 341 341 341 341 340 340 340 338 336 335 334 334 332 331 331 330 333 335 335 335 335 335 335 335 334 332 331 333 337 336 334 334 335 335 336 336 336 337 336 336 335 334 334 332 331 329 325 322 321 321 322 323 325 326 327 327 327
312 314 315 313 312 313 313 313 315 314 314 314 314 317 315 325 348 339 331 339 341 342 343 341 342 340 339 339 340 342 343 345 343 343 344 343 342 341 340 342 342 341 341 341 341 340 340 338 336 335 335 335 334 334 333 333 335 336 336 336 336 336 335 334 330 329 332 336 338 334 332 332 334 335 334 334 336 336 336 335 335 334 332 330 328 324 321 320 320 320 321 323 325 327 328 327 327
311 312 313 313 312 313 313 314 316 314 315 317 315 318 316 326 351 341 330 338 340 342 343 341 341 339 338 338 339 341 343 344 343 341 342 342 342 341 341 342 342 342 342 342 341 339 338 337 337 336 336 335 334 335 334 333 335 336 336 336 336 336 334 331 327 329 335 338 336 332 331 331 333 333 332 333 335 335 335 334 333 332 329 325 321 319 319 319 319 320 321 323 325 327 326 326 325
309 311 311 312 311 312 313 313 315 314 314 316 316 318 314 324 344 338 331 337 340 341 342 341 341 339 338 338 337 340 342 342 341 341 341 341 342 341 341 342 342 342 341 341 341 338 336 337 337 337 336 336 336 335 334 333 333 335 336 336 336 335 331 328 328 333 336 336 334 332 331 331 331 331 331 333 335 334 334 331 329 327 323 319 318 319 319 319 319 320 321 323 326 325 324 325 326
309 310 310 312 313 312 312 313 314 313 314 317 316 315 315 327 339 336 333 335 337 339 340 340 340 339 339 338 337 340 340 340 340 340 340 340 341 341 341 342 341 341 341 341 341 338 337 337 338 337 337 337 336 335 335 333 333 334 333 331 331 330 327 329 333 336 336 336 335 332 331 331 331 331 332 334 334 334 332 328 323 321 319 318 318 319 320 319 320 320 320 322 324 325 325 325 325
310 310 310 312 313 312 313 314 314 312 315 318 318 316 324 336 339 336 333 333 334 337 339 339 339 339 339 339 340 342 339 339 340 341 341 341 340 341 342 341 342 341 341 341 340 339 338 338 338 337 336 337 336 336 335 333 332 333 329 327 328 327 329 334 337 337 337 336 334 332 331 331 331 332 334 335 334 333 330 324 320 318 318 318 319 320 320 319 319 319 319 321 323 324 325 325 325
310 310 310 311 311 312 314 314 315 317 317 317 317 316 323 337 343 341 336 334 334 334 336 338 338 339 339 338 340 339 339 339 339 341 342 342 342 341 341 341 342 342 342 341 339 337 338 338 338 337 336 336 335 335 333 332 331 329 327 330 332 332 334 337 337 337 336 335 333 333 332 331 331 333 334 334 332 330 326 320 318 317 317 318 319 319 319 318 318 318 319 320 322 324 324 324 325
310 310 310 310 311 312 312 313 318 321 319 316 315 312 317 333 341 343 339 336 336 334 334 336 336 337 338 338 338 336 337 339 338 340 342 343 342 341 341 341 341 341 341 341 338 336 338 339 338 337 337 335 334 333 332 333 331 326 328 333 336 336 337 337 336 335 334 333 333 333 332 332 333 333 333 331 328 325 322 318 317 317 318 319 318 318 319 318 319 319 319 321 324 324 323 323 323
310 311 310 310 311 312 311 312 316 319 317 315 313 313 319 333 338 340 340 338 337 335 334 335 335 336 336 336 337 335 336 338 339 340 342 342 342 341 341 341 340 341 341 341 339 338 339 338 337 337 336 335 334 333 333 334 331 327 330 334 336 337 336 336 335 334 333 333 333 333 333 333 333 333 331 328 324 322 320 318 317 318 319 319 318 318 319 319 319 319 321 323 324 323 322 322 321
310 312 311 310 311 311 311 311 314 317 317 315 315 314 317 330 339 339 339 338 337 336 335 335 335 335 336 336 336 335 336 339 341 341 341 342 342 341 341 340 339 340 341 341 340 339 338 337 337 336 336 335 335 334 334 334 330 329 331 333 335 337 336 335 334 333 333 333 333 333 333 333 332 331 328 324 321 319 318 318 318 319 319 319 319 319 319 319 319 320 322 324 323 321 321 320 320
311 312 312 311 310 310 312 312 313 316 315 313 318 317 315 329 339 337 338 339 338 338 336 336 336 334 335 336 336 336 336 339 340 340 340 341 340 339 340 339 339 340 341 340 339 339 338 337 336 336 336 336 335 335 335 332 329 330 332 333 335 336 336 334 333 333 333 333 333 333 333 333 332 329 325 322 320 318 318 318 319 319 319 319 319 319 319 318 319 321 322 322 320 320 320 319 319
310 311 313 312 311 312 313 313 313 314 314 313 316 316 315 328 340 339 340 341 339 338 336 335 335 335 335 335 336 336 336 337 338 337 337 338 338 338 339 339 339 340 340 339 338 338 337 337 337 336 336 335 335 335 334 330 328 332 334 335 336 336 335 334 333 333 333 333 334 334 334 333 331 328 324 321 319 318 318 319 319 319 319 319 319 319 319 319 320 320 320 319 319 319 319 318 318
310 311 311 310 313 314 313 317 315 312 316 317 314 316 316 323 337 341 341 342 340 337 337 334 334 335 334 335 335 335 336 335 335 336 336 336 336 336 337 338 339 339 340 339 338 337 337 337 336 336 335 335 335 334 331 329 330 334 336 336 336 335 334 333 333 333 333 333 334 334 333 332 329 325 322 320 319 318 319 319 319 319 319 320 320 319 319 319 319 319 318 318 318 318 317 317 317
310 311 310 311 316 315 311 315 315 312 317 319 315 316 316 317 332 341 338 339 340 337 337 335 333 334 334 334 335 335 335 335 335 335 335 336 336 336 336 337 337 338 339 338 337 336 336 336 335 335 335 334 333 330 327 329 333 335 337 337 336 335 334 333 333 333 332 332 332 333 332 330 327 323 320 319 319 319 319 319 319 320 320 320 319 319 318 318 318 318 317 317 316 317 316 316 316
310 312 312 312 315 314 311 313 317 317 318 320 319 316 314 317 327 338 337 337 339 337 336 334 333 334 334 334 334 334 335 335 335 336 336 336 336 336 336 336 337 337 337 337 336 337 336 336 335 333 331 330 329 328 329 331 335 336 336 336 336 336 334 333 332 332 332 332 332 332 331 329 325 322 319 319 319 319 318 319 319 320 320 319 319 318 318 317 317 317 316 316 315 316 316 315 315
308 311 312 312 313 312 312 314 317 319 318 319 320 315 315 318 320 327 334 336 336 335 334 334 333 334 334 334 334 334 334 334 335 336 336 336 336 336 336 336 336 337 337 336 336 337 336 336 334 329 326 326 328 332 333 334 336 336 336 337 336 334 333 333 332 332 332 331 331 331 330 328 324 321 319 319 319 319 318 319 320 320 320 319 318 318 317 317 316 316 315 315 315 315 314 314 313
308 311 312 313 316 317 317 318 317 317 318 318 315 315 319 318 318 326 330 332 334 334 334 334 333 334 335 335 334 334 334 334 336 336 336 336 336 336 336 336 336 336 337 337 337 336 336 335 332 328 328 330 333 334 335 336 337 336 336 337 335 333 332 333 333 332 331 330 330 330 329 327 324 321 319 319 319 319 319 320 320 320 319 318 318 317 317 316 315 314 314 314 314 314 313 313 312
309 311 312 312 317 320 319 321 324 321 318 317 316 319 324 321 324 331 332 334 336 334 334 334 334 334 334 334 334 334 334 335 336 337 336 336 336 336 337 336 336 336 336 337 337 336 336 335 332 330 331 334 335 335 336 336 336 336 336 335 334 332 332 333 333 332 331 330 330 330 329 327 325 323 320 319 320 319 319 319 319 319 318 318 317 316 316 315 314 314 314 313 313 313 312 312 311
311 310 312 312 315 317 315 316 322 321 315 320 320 318 321 320 324 334 337 340 339 335 335 334 333 335 334 334 335 334 334 335 337 337 336 336 336 335 336 336 336 337 336 337 336 336 336 335 332 331 333 335 335 335 336 336 335 335 335 334 333 332 332 333 332 331 330 330 330 329 328 327 326 323 320 320 320 319 319 319 319 318 317 317 316 315 314 314 313 314 313 313 313 312 312 311 311
312 310 311 312 311 317 321 320 321 320 317 322 321 314 317 319 324 336 339 340 338 336 336 334 333 335 334 334 334 334 334 335 336 338 336 336 336 335 335 336 336 337 337 336 336 336 335 334 333 332 335 336 334 334 335 336 334 334 334 333 332 332 333 332 331 330 330 331 330 329 328 327 325 321 320 320 319 319 319 318 317 317 316 316 315 314 313 313 314 314 313 311 311 311 311 311 311
312 312 311 314 315 317 321 321 320 320 317 318 318 316 319 321 328 342 343 338 337 336 335 335 334 334 334 333 334 334 334 335 336 337 337 335 335 335 336 336 336 336 336 336 336 335 335 334 333 333 335 336 335 335 335 335 334 334 333 332 332 332 332 332 331 331 331 331 330 329 328 327 323 320 320 320 319 319 318 316 316 316 316 315 314 314 314 314 314 313 311 309 308 309 310 310 310
311 312 310 313 319 319 317 318 320 320 320 322 320 317 321 325 334 348 347 336 335 336 335 335 334 333 334 333 333 334 334 335 335 336 337 336 335 336 337 337 336 336 336 335 336 335 335 335 334 334 335 336 336 336 336 335 334 334 333 332 332 332 332 332 331 332 331 330 330 328 328 326 322 320 320 319 318 318 317 316 316 315 315 315 314 314 314 314 314 312 309 306 305 306 308 307 306
310 311 311 311 313 315 316 317 317 318 323 327 323 319 328 336 337 345 346 335 333 335 334 334 333 333 334 333 333 333 333 334 335 335 336 336 335 335 337 337 336 337 337 336 336 336 336 336 334 335 336 337 337 336 335 335 334 334 333 332 332 332 332 332 332 331 331 330 329 328 327 324 321 320 319 318 317 317 317 317 316 315 315 315 315 314 314 314 313 312 307 303 302 302 303 302 301
310 312 314 314 312 315 317 315 315 320 324 326 324 324 333 337 331 335 339 334 333 335 333 333 333 332 333 333 333 333 333 334 334 334 336 337 336 335 336 337 336 338 338 336 335 335 335 335 335 335 336 336 336 336 335 335 334 333 333 332 332 332 332 332 332 331 330 329 328 328 326 323 320 320 319 318 317 316 317 317 315 315 315 315 315 314 314 313 314 312 306 301 299 299 299 298 298
Wind_Speed
15 14 13 11 9 9 7 7 3 2 3 2 3 0 4 2 1 5 7 11 6 7 8 7 21 27 14 4 15 8 3 9 7 5 3 5 15 22 24 24 27 28 28 28 26 24 22 23 24 23 23 22 20 20 19 18 17 17 17 16 15 14 13 12 11 10 9 10 9 9 8 8 8 7 7 8 9 10 12 12 10 9 9 9 9 9 8 8 7 6 6 5 4 3 3 3 2
15 14 12 11 9 7 4 4 2 3 4 3 3 3 4 3 3 3 4 7 1 3 8 9 13 19 10 6 11 5 3 11 7 5 4 13 24 27 27 26 27 27 28 28 27 25 23 24 24 24 23 22 21 20 20 19 18 17 17 16 15 14 13 12 11 10 10 10 9 9 8 7 7 7 7 8 8 9 10 11 11 9 8 8 7 7 7 6 5 4 4 4 3 3 3 4 4
15 14 11 9 6 2 0 3 1 0 2 3 5 2 2 5 5 1 1 4 5 9 13 11 5 5 6 5 6 3 6 10 8 6 8 21 27 29 29 26 25 24 26 27 27 25 24 24 25 25 23 23 21 21 21 19 18 17 17 16 16 15 13 12 11 11 10 10 9 8 8 7 7 7 7 8 8 8 9 10 10 9 8 7 7 6 5 5 4 4 5 5 5 5 5 5 7
14 12 10 6 1 1 2 2 2 4 2 3 4 4 3 4 8 3 4 3 4 9 13 11 5 6 6 5 6 4 6 9 10 8 10 23 25 29 29 26 25 22 23 23 25 24 23 25 25 25 23 23 22 21 21 20 19 17 17 16 16 15 14 13 12 11 10 9 8 8 8 8 7 7 7 7 7 7 8 8 7 7 7 6 6 5 5 5 5 6 7 7 6 6 6 8 11
12 10 8 4 1 1 2 1 2 4 5 4 3 6 4 5 7 4 6 8 7 6 7 10 7 8 9 11 9 5 5 5 9 10 10 21 24 28 29 27 25 22 21 21 22 23 23 25 25 25 24 23 22 22 21 20 19 18 17 16 16 15 14 13 12 12 10 9 8 8 8 8 7 7 6 6 6 7 7 7 6 5 5 5 5 4 5 6 7 8 9 8 7 8 9 12 14
10 7 6 3 2 3 3 1 2 3 5 5 3 7 6 7 7 8 8 11 15 16 15 16 11 8 7 9 9 6 5 2 6 11 11 21 26 27 29 27 25 22 21 21 22 23 23 24 25 25 24 23 23 23 22 20 19 18 17 17 17 16 15 14 13 12 11 10 9 8 8 8 8 7 6 5 6 6 6 6 5 5 5 4 4 4 6 7 7 9 9 9 8 9 12 13 14
7 6 4 4 2 2 3 4 5 4 6 6 5 8 8 8 10 10 7 11 12 11 15 16 13 9 3 6 7 7 7 4 5 9 12 20 26 27 28 27 26 23 21 22 23 23 23 24 26 26 25 24 24 24 22 20 18 18 18 17 17 16 15 14 13 12 11 10 9 9 8 8 8 7 6 5 6 6 6 6 5 4 4 4 4 5 6 7 8 9 9 9 9 10 12 13 13
7 6 4 4 1 2 3 4 5 4 4 4 6 9 12 15 13 8 5 6 8 4 8 10 11 7 4 7 4 4 9 5 4 5 12 18 25 27 28 27 25 23 22 23 24 24 24 24 26 26 25 25 24 24 22 20 19 18 17 17 17 16 15 14 13 13 12 11 10 9 8 8 8 7 6 6 5 6 6 6 5 4 3 4 4 4 5 6 7 8 9 9 9 10 11 11 12
9 7 3 3 2 1 2 2 4 4 4 5 8 12 17 22 15 8 8 9 10 4 8 12 12 7 4 6 3 4 8 6 3 4 11 18 24 26 27 27 25 24 24 24 25 25 25 25 26 26 26 25 25 24 22 20 19 18 17 17 17 16 15 14 14 13 12 11 10 9 9 8 8 7 7 6 5 5 6 6 5 4 4 4 4 4 4 5 6 7 8 9 9 9 10 10 11
9 7 3 2 3 2 3 2 4 3 6 6 9 15 18 21 18 11 8 12 15 4 7 13 14 11 5 5 3 4 7 7 5 6 14 21 24 26 26 27 24 23 24 25 26 26 26 26 26 27 26 25 25 23 22 20 19 18 17 17 16 16 15 14 14 13 12 11 10 9 9 9 8 7 7 6 5 5 5 5 5 4 3 3 3 4 4 4 5 6 7 7 8 7 8 9 10
7 5 4 2 3 4 5 4 5 5 6 3 7 18 21 23 18 11 10 15 16 5 8 10 10 13 6 3 5 5 7 7 7 8 17 23 24 25 26 27 25 23 23 25 26 26 26 27 27 27 26 26 25 23 21 19 18 18 17 16 15 15 14 15 14 13 13 12 11 10 9 8 8 7 7 6 6 5 5 5 5 4 4 3 3 3 4 4 4 5 5 6 7 6 6 7 8
5 2 4 3 5 4 6 5 6 7 6 3 5 17 23 20 12 10 11 13 12 6 14 15 12 15 7 1 5 6 8 9 9 11 18 23 25 25 26 26 25 24 23 24 25 26 27 28 28 27 27 26 24 22 20 19 18 17 16 16 14 14 14 15 15 14 13 12 11 10 9 8 8 7 7 6 5 5 4 4 4 4 4 3 3 3 3 3 3 4 4 4 4 5 5 5 7
8 4 5 2 5 4 6 5 6 5 5 4 7 18 21 12 10 16 14 12 12 7 15 22 22 17 6 1 5 9 13 14 14 15 20 23 25 25 26 25 25 25 24 24 25 26 27 28 28 27 27 26 24 22 19 18 17 17 16 15 14 14 15 15 15 14 12 11 11 10 9 8 8 7 6 6 5 4 4 4 4 4 3 3 3 2 2 2 2 2 2 2 2 2 3 3 4
11 5 6 2 2 4 4 3 4 4 5 6 9 19 20 13 14 19 14 9 13 11 15 22 27 18 6 4 5 15 18 17 19 20 22 23 24 25 25 24 24 24 24 24 25 26 27 28 28 28 28 26 25 22 20 18 17 17 15 14 14 14 15 14 14 13 12 11 10 10 9 8 7 7 6 6 5 5 4 3 3 3 3 3 2 1 1 1 1 1 1 1 2 1 0 1 2
15 6 5 2 1 3 4 4 5 6 6 5 11 18 16 18 17 16 16 10 13 14 12 14 26 14 7 12 10 21 23 20 24 23 24 24 24 25 24 24 23 24 24 24 25 26 27 28 28 28 28 27 25 22 20 18 17 16 15 14 14 14 14 14 14 13 12 11 10 9 8 8 7 6 6 5 5 4 4 3 3 3 3 2 1 0 0 1 1 2 2 2 3 3 3 3 2
17 6 3 2 3 3 4 4 5 6 5 6 15 13 8 18 17 15 21 14 7 7 9 10 21 9 8 21 16 23 26 24 27 24 25 26 26 25 24 24 23 24 24 25 26 26 27 27 28 28 27 27 24 22 20 19 18 16 15 14 14 14 14 14 14 13 12 11 10 9 8 7 6 6 5 5 5 4 4 4 3 3 3 2 1 1 1 2 2 3 3 4 4 4 5 5 5
13 7 1 2 4 4 5 6 6 5 5 8 14 8 3 12 15 15 16 11 7 12 9 8 18 8 7 18 15 22 27 27 29 27 28 28 28 27 27 26 25 26 25 26 26 26 26 27 28 28 28 26 24 22 20 19 18 17 16 15 14 14 14 14 14 13 12 11 10 8 7 7 6 6 6 6 6 6 5 5 4 4 3 2 2 1 2 1 2 2 3 3 4 4 5 5 6
9 4 3 5 4 6 6 8 7 5 4 6 6 3 2 6 13 15 8 4 10 13 6 8 14 6 4 11 13 23 28 30 30 29 31 31 30 30 30 28 27 28 27 27 26 25 26 27 28 28 28 26 24 23 21 20 19 18 17 16 15 14 14 14 14 13 12 11 10 8 7 7 7 7 7 7 7 7 6 6 5 4 3 3 2 1 1 2 2 1 2 3 3 4 4 4 4
9 3 4 7 5 6 6 7 7 5 6 5 3 4 5 7 12 16 7 3 9 8 3 6 9 6 8 12 18 26 29 31 31 31 32 32 31 31 32 30 29 29 28 27 26 25 26 27 27 28 28 26 26 24 22 21 20 19 18 17 16 15 14 14 14 14 13 12 11 9 8 8 9 9 8 7 6 6 5 5 4 3 2 2 1 1 1 2 2 2 3 4 5 5 5 4 4
10 5 4 8 6 4 7 9 12 11 8 5 5 6 9 13 15 14 5 3 4 6 5 7 11 16 19 20 25 29 31 32 32 33 32 32 32 31 31 31 30 29 27 25 24 25 25 26 27 28 28 27 26 24 23 22 21 20 18 17 16 15 15 14 15 14 14 13 12 11 9 9 10 9 7 6 5 4 4 3 3 2 1 2 2 2 2 2 3 4 5 5 6 6 6 6 6
8 9 5 5 7 4 11 15 16 16 13 11 10 6 9 16 17 14 6 2 3 8 12 13 16 24 27 28 31 31 33 34 33 33 31 31 31 30 30 29 28 26 24 23 22 23 24 26 27 28 28 27 26 24 24 23 21 21 19 18 16 15 15 15 15 14 13 12 11 10 9 9 9 8 6 5 4 3 3 3 2 2 2 2 3 3 3 3 3 4 5 6 6 6 6 6 7
4 8 8 6 7 5 12 18 17 18 17 16 11 4 8 15 14 14 10 6 4 6 11 13 19 26 27 29 33 34 35 34 31 30 29 30 30 29 29 28 27 25 23 22 22 23 25 27 27 28 28 27 26 24 24 22 21 21 19 18 16 16 16 16 15 13 12 10 8 8 9 9 9 8 7 6 5 3 3 3 3 2 2 2 3 4 5 4 4 5 5 5 6 6 6 7 8
5 4 7 10 11 6 8 14 17 19 17 16 9 3 8 10 11 14 9 8 7 8 9 10 18 23 24 28 34 35 32 28 27 27 29 29 28 28 28 28 27 24 23 22 22 24 25 27 27 28 27 27 25 24 23 22 22 21 19 18 17 17 17 16 14 12 10 7 5 7 9 10 9 7 5 5 4 3 2 2 2 2 2 3 3 4 5 5 6 6 6 6 7 7 7 7 8
8 4 3 9 13 11 11 13 15 18 18 20 13 5 7 7 9 11 12 17 15 11 8 8 20 25 28 31 32 31 27 25 26 27 29 29 27 26 27 28 26 24 23 23 23 24 25 26 27 27 27 26 25 23 23 21 21 21 19 18 17 17 17 15 12 9 7 5 4 6 8 8 7 6 3 3 3 2 2 1 2 3 4 4 4 5 5 6 7 8 8 8 8 8 8 8 9
7 6 4 6 11 13 15 16 17 18 17 21 17 8 10 14 14 10 18 26 16 7 4 11 25 29 29 31 30 30 28 28 29 30 32 30 28 27 28 27 25 24 23 23 24 24 24 24 25 26 26 25 24 23 23 21 21 21 20 18 17 17 15 13 10 8 6 5 6 6 7 6 5 4 2 1 0 1 2 3 4 5 6 6 5 6 6 7 8 9 8 8 8 9 10 10 10
6 9 9 8 10 13 14 15 18 19 17 17 13 8 14 21 14 8 20 22 8 2 7 18 28 30 29 31 32 34 33 33 34 34 33 30 28 28 28 26 23 23 22 23 25 24 23 23 23 24 24 23 22 22 22 21 21 21 20 18 16 15 13 11 9 8 7 8 7 7 6 5 3 2 3 3 3 3 5 6 6 7 7 7 7 7 8 9 10 9 9 9 10 11 11 11 11
7 10 13 13 13 16 16 15 18 18 16 15 9 6 15 19 7 5 14 8 8 12 18 25 30 31 30 33 35 36 36 36 36 35 33 30 29 29 27 24 22 21 22 24 24 23 22 22 22 21 21 21 21 22 22 21 21 21 19 18 16 13 12 11 10 9 9 9 7 6 4 3 3 5 6 5 4 5 7 8 9 9 8 7 8 8 8 10 10 10 10 10 11 11 11 11 11
10 10 9 11 14 16 17 15 16 13 10 15 12 8 13 10 3 9 12 8 17 20 26 29 33 32 31 35 36 36 35 35 34 34 34 32 32 31 27 25 23 22 24 25 23 22 21 20 20 20 21 22 22 22 22 21 20 20 19 18 16 13 12 11 10 10 9 7 5 3 2 5 6 7 7 5 5 7 8 9 10 10 8 7 7 9 9 10 10 10 11 11 11 11 11 12 12
9 8 5 7 7 10 13 13 14 10 6 13 11 5 9 4 5 13 11 15 23 26 29 30 33 32 33 37 36 35 35 35 34 33 32 31 32 32 28 26 26 23 24 26 23 21 19 19 21 22 23 23 23 23 23 21 20 20 19 18 16 14 12 11 10 10 8 6 3 2 4 7 8 8 7 6 7 8 9 10 9 8 7 7 8 10 11 12 11 11 12 12 12 12 12 13 12
6 4 4 4 4 6 9 10 11 9 9 14 9 3 7 5 10 15 8 21 28 28 29 30 33 31 31 35 35 35 36 37 36 33 30 29 30 31 28 26 27 24 24 27 26 22 19 19 21 23 24 24 24 23 23 22 21 20 20 19 17 14 12 11 10 9 7 4 2 4 7 8 9 8 7 8 8 9 9 9 8 8 8 9 10 11 12 12 12 12 13 14 14 14 13 13 12
2 2 3 3 4 5 7 8 8 6 10 15 12 4 8 5 12 15 11 22 29 27 27 30 32 31 31 35 35 36 37 37 36 32 30 29 29 29 29 28 28 26 25 28 27 23 22 21 22 24 24 24 23 23 24 23 22 22 20 19 16 14 12 11 10 8 6 4 4 8 9 9 8 7 8 9 9 8 8 9 9 9 10 10 11 12 12 13 13 14 16 16 15 14 12 12 12
1 4 3 3 5 5 7 7 9 8 8 14 14 4 6 5 11 12 9 20 28 27 26 28 30 31 32 35 36 36 36 36 35 33 31 31 30 29 31 31 28 26 26 28 26 24 24 23 24 25 24 23 23 24 23 23 23 22 20 18 16 14 12 11 9 8 6 6 8 10 10 8 6 7 9 10 8 8 8 9 10 10 10 11 12 12 13 14 15 16 16 15 14 13 12 12 11
2 3 3 3 5 3 5 6 9 12 7 8 11 5 2 5 12 10 7 21 29 27 26 27 29 31 33 35 35 36 36 35 36 35 34 34 32 30 31 31 27 24 25 26 26 25 24 23 26 26 25 24 24 24 24 24 24 21 19 17 15 14 12 11 10 10 10 10 11 11 9 7 6 8 10 9 9 9 9 10 11 11 11 13 14 14 15 16 16 15 14 13 12 12 12 11 10
3 1 3 2 4 5 4 5 5 11 8 6 7 6 4 6 8 5 12 25 29 27 26 27 28 29 32 33 34 37 37 37 38 38 38 37 35 32 32 30 27 24 24 26 25 23 23 25 27 27 26 24 23 24 24 24 22 19 17 15 14 13 13 13 12 13 13 13 12 11 9 8 8 9 10 10 9 9 10 10 11 12 13 15 16 16 17 16 15 13 12 11 11 11 11 10 9
3 3 4 3 3 5 7 5 4 7 7 6 6 6 7 7 7 1 15 28 29 28 30 30 29 29 30 31 34 36 37 38 38 39 40 39 38 35 33 30 27 25 25 27 26 25 25 27 29 28 26 25 23 23 23 22 20 17 17 16 15 15 15 14 14 14 14 13 13 11 10 10 9 9 10 10 10 10 11 11 12 13 15 17 17 17 16 14 13 11 10 9 10 10 10 10 9
7 5 4 4 4 5 6 5 5 5 6 5 7 6 6 7 6 0 12 24 27 28 29 27 26 26 28 29 33 35 37 37 35 36 39 40 39 36 34 32 29 27 27 29 28 28 29 30 30 28 26 25 24 24 23 21 20 19 19 19 19 19 18 16 15 15 14 14 13 12 11 10 9 9 10 11 10 10 11 12 14 16 17 17 17 16 14 12 11 10 9 8 9 9 9 9 9
7 5 3 4 4 4 4 4 7 3 5 4 6 7 7 7 7 3 10 17 18 22 22 20 22 25 27 29 31 34 36 35 33 35 38 38 38 36 35 34 31 30 30 31 30 29 30 30 29 28 26 25 25 26 25 23 23 23 24 23 23 21 20 18 16 15 15 15 14 13 12 10 9 9 11 12 11 12 13 14 16 16 16 15 14 13 12 11 10 9 8 8 8 10 10 10 10
4 4 3 4 4 4 4 4 6 1 3 4 4 6 8 7 6 4 10 12 13 20 20 19 23 24 26 29 30 32 34 33 33 35 36 35 37 37 37 37 36 34 33 34 33 30 29 30 29 27 27 27 26 26 25 24 25 25 25 25 25 22 19 17 16 15 15 16 15 13 11 9 9 10 12 12 12 13 14 15 16 14 13 12 12 11 10 9 9 7 7 7 9 11 11 12 11
5 3 3 3 4 3 4 5 4 0 3 4 3 6 7 4 3 4 8 7 11 26 30 29 31 27 26 29 31 34 34 33 35 36 35 35 37 38 39 40 39 36 34 34 34 31 31 31 30 29 29 28 27 26 25 25 25 24 23 23 22 21 19 18 16 16 16 16 14 11 9 8 9 11 12 12 13 14 15 15 13 11 10 10 10 9 8 8 8 7 6 6 8 10 11 12 12
5 4 3 3 3 2 2 4 4 1 3 2 3 3 5 3 3 2 6 5 7 18 24 28 33 32 32 34 36 38 37 36 37 36 36 37 38 39 40 41 40 37 36 37 36 34 34 34 33 32 31 29 28 27 26 25 25 24 21 20 20 19 18 18 17 17 17 15 12 9 8 9 11 12 12 13 14 15 15 13 10 9 9 8 7 7 7 7 8 7 6 6 7 9 9 11 13
4 4 5 4 3 3 3 3 3 3 2 2 4 2 5 1 3 3 5 3 5 9 12 17 23 27 28 29 33 36 37 40 40 39 38 39 40 41 41 40 38 38 40 39 37 35 35 35 35 33 31 30 29 28 27 26 24 23 22 21 19 19 19 20 19 18 17 14 12 10 10 11 12 12 13 14 16 15 13 10 9 8 7 6 6 6 7 7 8 8 7 6 6 7 9 10 11
4 4 6 6 5 5 3 2 3 5 4 2 3 1 6 3 5 6 3 3 6 6 8 13 17 21 24 27 30 32 34 37 39 41 41 41 41 41 40 39 38 39 41 41 38 36 36 37 35 33 31 31 29 27 26 25 23 24 24 22 21 21 22 21 21 20 17 14 12 12 11 11 12 12 13 14 14 13 11 9 8 7 5 5 6 6 7 8 8 9 8 8 7 7 9 10 11
4 5 8 8 6 5 3 0 2 3 2 4 3 5 5 4 4 6 4 4 5 5 7 11 15 20 25 28 30 32 35 37 38 40 41 41 41 41 40 38 38 40 41 41 39 37 36 35 33 33 32 31 28 26 25 24 24 24 23 21 21 22 22 21 20 18 16 14 13 12 11 11 11 12 12 13 12 11 9 8 7 5 4 5 6 7 7 8 9 9 9 9 9 9 10 10 11
3 5 9 9 8 6 4 3 1 2 2 4 1 4 2 4 5 4 4 4 4 6 9 10 13 18 23 28 31 35 39 40 40 40 40 41 41 40 40 38 38 40 41 40 38 36 35 33 32 33 32 30 28 27 25 24 25 24 23 21 20 20 21 21 19 17 16 15 14 13 12 11 11 11 10 10 10 8 7 6 5 4 5 6 6 7 8 9 10 10 9 9 10 11 11 11 11
4 6 8 9 8 7 5 4 3 2 1 5 4 3 2 5 4 2 5 5 6 10 12 12 14 19 23 27 30 34 37 39 40 40 39 40 39 37 37 37 38 39 40 39 37 35 34 32 32 32 31 31 29 28 26 25 25 25 23 22 21 21 21 20 18 17 17 16 15 14 13 11 10 9 9 8 7 7 6 5 4 4 5 5 6 7 8 9 9 8 8 9 10 11 11 11 11
4 6 6 4 4 5 5 5 4 1 1 6 6 3 3 4 3 4 4 6 9 10 10 11 15 19 24 27 29 32 34 35 35 34 34 37 37 36 37 38 38 38 39 38 37 35 34 32 32 31 31 31 29 28 26 26 26 25 23 22 22 23 22 20 19 19 18 17 16 14 13 11 9 9 8 7 6 6 6 4 4 4 4 5 6 8 9 9 8 7 8 9 10 10 10 11 10
5 6 3 1 2 1 3 3 3 2 2 8 7 6 5 4 4 5 6 10 13 11 8 10 15 19 25 29 30 32 33 33 32 30 30 32 33 34 36 38 37 38 38 38 37 35 34 32 31 31 31 31 29 28 27 27 26 25 24 23 23 23 23 22 21 20 20 18 16 14 12 10 9 8 7 6 5 5 5 4 4 4 4 5 6 7 8 8 7 7 8 9 9 9 9 10 10
6 5 4 1 4 2 1 2 2 3 5 7 6 7 6 5 5 6 12 14 10 11 13 15 17 21 26 29 30 32 32 32 30 29 29 31 33 34 36 37 37 37 38 38 37 35 34 33 31 31 31 30 29 28 28 27 26 25 23 22 23 23 22 22 21 21 19 18 17 14 11 9 8 7 5 4 4 5 5 4 3 2 3 4 5 6 6 6 6 7 7 8 8 7 8 8 9
6 5 6 4 2 1 2 2 1 4 6 6 4 5 4 6 7 9 16 16 10 12 17 20 22 25 29 29 30 30 30 31 30 29 31 33 33 32 31 33 35 37 38 37 37 35 35 33 31 30 30 30 29 29 28 27 26 25 22 21 22 22 22 21 20 20 18 17 16 12 10 9 7 5 3 4 6 6 5 3 1 1 2 4 5 5 5 6 6 7 7 7 7 6 7 7 7
7 6 6 6 4 3 4 3 1 2 5 7 4 3 2 5 5 8 14 18 18 17 18 23 25 27 29 29 29 29 29 31 31 30 32 34 34 31 29 31 34 37 38 37 37 36 35 33 30 29 29 29 29 28 27 27 26 23 21 21 21 21 21 20 20 19 17 17 15 12 10 9 5 3 3 5 7 6 3 1 0 1 2 4 4 4 5 5 6 7 6 6 6 6 6 7 8
7 4 6 5 4 5 4 2 3 3 4 5 2 3 4 4 3 7 9 10 12 13 14 18 20 21 24 25 26 27 28 30 31 31 33 34 35 35 34 35 35 36 38 38 37 36 34 32 29 29 29 29 28 27 27 25 24 22 22 22 22 21 21 20 19 18 17 18 15 12 10 7 4 3 3 5 6 4 2 2 1 1 2 3 3 4 4 5 5 5 5 5 6 6 6 7 8
5 4 6 5 5 5 1 3 6 5 3 4 2 3 4 4 3 7 2 3 8 13 15 18 19 20 22 24 26 27 28 30 31 32 34 34 36 36 36 37 36 37 38 38 37 36 34 32 29 29 29 28 27 26 26 24 23 22 22 23 22 22 21 20 19 18 18 17 14 11 9 7 5 4 4 6 6 5 4 3 2 1 2 3 3 3 3 4 4 4 4 5 6 6 6 6 7
4 4 5 5 5 5 1 2 1 3 4 4 2 2 4 2 3 7 5 5 7 10 13 17 20 22 23 24 27 28 30 32 32 32 35 35 37 37 36 37 36 37 38 38 38 37 35 32 30 30 29 28 27 26 25 24 23 23 23 24 23 22 21 20 19 19 19 16 13 10 10 8 7 5 5 7 6 6 5 3 2 2 3 2 2 2 2 3 4 5 5 6 6 6 6 5 7
5 6 7 3 3 2 1 2 1 3 4 4 1 3 3 1 2 5 5 4 6 8 10 13 16 22 23 24 28 30 32 34 32 31 34 35 36 37 36 36 36 36 37 38 38 37 34 32 30 31 29 28 27 27 26 24 24 24 24 24 23 21 21 20 20 19 18 15 13 12 11 9 7 7 8 9 7 6 5 3 3 3 2 0 2 2 2 2 4 6 6 6 6 6 5 5 6
6 6 8 5 4 2 1 2 2 2 3 3 1 1 2 3 4 3 2 7 9 8 9 10 13 19 22 24 28 31 31 32 31 31 33 35 36 36 36 36 35 34 35 36 37 36 34 31 30 31 29 27 27 27 26 26 26 26 25 24 22 21 21 22 21 19 17 15 13 14 12 9 8 10 11 10 8 7 5 3 2 2 1 1 2 1 1 3 4 6 7 6 6 5 4 4 6
4 5 6 4 4 4 3 2 3 3 3 3 1 2 2 5 6 7 10 10 10 11 11 12 14 21 25 26 29 31 30 31 32 33 33 34 35 35 35 35 34 33 34 35 36 35 34 32 31 30 28 26 26 27 28 27 27 26 25 23 22 22 23 22 20 19 17 15 14 14 12 10 10 12 12 11 9 8 5 2 2 2 2 2 2 0 2 3 5 7 8 7 7 6 5 5 6
5 5 5 4 3 3 2 1 2 3 3 3 3 2 5 6 4 9 12 11 12 14 14 13 16 23 27 28 31 32 31 32 34 35 33 32 33 33 34 34 33 33 34 35 34 34 34 32 31 29 27 27 27 28 29 28 27 26 24 23 23 24 23 22 20 18 17 15 15 14 12 12 14 14 13 12 10 7 4 3 2 3 2 2 1 1 3 4 6 8 8 7 6 6 5 6 6
7 6 5 5 5 4 3 2 1 2 3 4 4 3 6 6 3 6 9 11 13 15 14 12 16 25 28 29 32 33 34 35 35 35 32 30 32 34 34 35 34 34 35 35 33 34 33 31 30 28 27 28 29 29 29 28 26 25 24 24 24 23 22 21 20 19 17 16 16 15 15 15 16 15 13 12 9 6 5 4 3 3 2 2 1 1 3 5 7 8 8 7 6 5 6 6 5
Wind_Direction
286 288 297 301 317 323 334 9 11 343 53 306 277 159 268 235 314 330 338 336 349 356 354 170 156 155 160 211 205 232 279 171 169 160 210 185 143 153 154 158 168 168 166 159 163 167 164 165 165 167 169 171 171 165 160 160 158 156 152 152 152 152 152 149 148 143 143 138 132 126 116 110 103 102 101 104 115 129 135 129 123 122 126 119 115 114 114 112 108 102 94 91 89 99 115 134 139
281 284 293 295 313 319 314 42 44 320 35 317 283 160 260 311 332 337 341 324 355 40 40 108 134 165 198 285 217 264 258 189 205 206 168 151 149 154 156 161 169 169 166 161 164 166 164 164 165 167 170 172 170 166 161 160 159 157 155 153 153 152 153 151 150 148 145 141 135 128 119 112 105 104 102 105 116 134 144 139 133 137 139 128 124 122 121 118 111 100 89 86 84 95 112 132 140
276 279 288 293 309 313 347 57 77 156 73 275 272 204 243 308 281 189 235 313 70 105 107 110 100 192 271 317 213 237 211 215 233 211 153 155 156 156 157 164 167 166 166 161 164 167 165 163 165 168 171 173 170 166 162 161 161 159 157 153 154 153 154 153 152 150 144 139 135 129 119 112 107 105 104 105 113 131 148 148 141 143 145 137 133 128 125 121 109 99 90 87 87 94 107 123 135
273 276 282 282 273 100 82 62 142 145 193 238 270 260 176 260 259 178 191 244 72 112 124 143 178 228 263 284 255 278 231 228 224 210 165 163 159 156 156 162 165 164 165 162 166 167 166 164 164 168 171 173 170 167 164 163 163 162 158 155 156 154 155 155 151 146 140 136 132 127 117 112 108 105 106 107 111 124 145 155 146 139 141 139 134 128 125 118 106 97 88 84 84 91 109 127 137
267 271 272 257 194 160 102 95 124 145 209 193 246 271 201 229 254 225 206 213 222 211 174 181 209 218 228 262 263 279 260 235 218 215 179 163 159 158 157 162 166 165 167 166 168 169 168 165 164 168 171 173 170 168 166 165 165 163 159 157 158 156 157 155 150 143 136 133 127 122 115 113 109 106 108 111 115 121 140 154 152 144 138 134 130 125 122 114 104 96 89 85 85 98 118 131 136
258 260 251 217 162 156 126 171 187 189 218 178 207 269 256 235 253 263 251 259 251 237 237 227 216 193 208 250 238 262 261 235 235 220 189 163 162 163 160 162 166 168 171 170 171 172 170 167 166 168 171 173 171 169 168 167 167 164 160 161 160 157 159 155 148 141 135 131 125 120 115 113 110 109 110 114 119 122 136 148 153 148 138 135 126 120 116 110 104 97 93 92 95 112 125 133 137
236 228 211 165 141 129 126 196 208 220 227 184 200 255 264 256 260 272 283 291 280 237 232 230 198 169 194 215 217 262 216 208 281 224 193 168 164 166 164 164 166 169 173 173 174 173 171 170 167 167 172 174 171 170 169 169 167 164 163 163 161 160 159 154 146 139 135 131 126 122 116 113 110 109 110 113 117 122 132 141 146 142 137 131 117 113 111 107 105 101 99 99 106 121 130 135 139
207 197 170 139 102 45 122 199 221 218 232 220 230 245 252 264 264 273 289 266 287 266 215 225 194 178 248 205 200 247 204 228 309 216 195 175 167 168 169 170 169 170 174 176 176 175 173 171 169 168 172 174 172 170 170 170 168 166 166 166 163 163 159 152 145 139 136 133 129 125 118 113 109 107 107 107 109 114 122 131 133 131 129 114 106 106 106 105 105 103 102 105 112 127 136 140 144
191 182 156 140 146 98 142 215 244 232 250 251 247 246 249 263 266 261 274 261 271 264 207 228 212 207 239 200 218 231 210 236 271 218 195 180 172 170 172 174 175 173 173 177 177 176 173 171 170 169 172 174 172 171 171 171 168 168 167 167 166 164 159 151 145 141 139 136 132 127 121 115 110 108 105 104 101 103 107 116 122 127 128 114 110 105 103 105 104 104 103 106 112 130 142 144 148
180 175 159 120 136 175 221 242 248 249 250 237 244 251 252 260 266 258 255 268 266 244 216 227 207 211 219 183 210 230 221 232 245 215 185 178 174 171 173 176 181 179 175 177 178 176 172 171 170 170 173 173 172 171 172 171 170 169 167 167 168 165 158 151 147 144 142 138 135 130 126 120 115 113 109 108 104 99 99 103 113 122 127 118 117 112 108 104 102 103 102 105 108 123 146 155 155
169 172 155 140 161 184 213 231 237 247 257 265 268 257 257 258 266 268 250 263 264 250 229 212 195 208 189 171 199 207 211 215 243 210 178 174 172 173 176 177 182 182 177 177 177 175 172 171 170 171 173 172 173 172 172 172 171 169 167 169 168 165 158 153 149 147 145 141 139 136 132 126 119 118 115 115 109 106 103 102 108 113 118 115 112 108 107 103 98 100 99 104 104 111 134 162 171
170 176 131 168 196 188 204 212 230 243 270 302 281 259 259 256 261 265 249 261 265 243 218 204 204 203 162 191 209 186 186 189 219 203 176 172 172 175 178 179 181 181 179 178 177 175 173 171 170 171 173 172 172 172 172 173 171 168 168 170 168 165 160 155 153 150 148 145 144 142 138 131 123 121 118 116 112 110 108 106 106 106 110 107 107 109 109 107 100 98 95 100 105 108 115 146 177
186 165 125 178 203 176 188 201 235 243 276 253 238 256 260 255 248 253 258 270 263 231 227 225 209 191 148 150 183 173 180 185 193 187 176 171 174 176 178 180 180 181 180 178 177 176 175 172 171 171 172 172 172 172 173 173 171 169 169 169 167 166 161 157 155 152 150 148 148 146 142 137 131 125 119 115 112 115 114 112 112 110 111 108 110 109 108 103 88 79 79 81 93 110 118 130 165
196 173 151 197 208 160 164 184 229 214 255 246 234 254 259 256 252 261 270 272 271 253 248 238 203 182 145 140 170 181 181 182 180 176 173 171 175 176 178 180 180 182 180 179 178 176 176 174 172 171 171 172 172 172 173 173 171 171 170 169 168 166 163 159 156 153 153 153 153 150 145 144 137 130 124 118 115 116 117 116 117 115 115 116 115 101 89 79 36 17 19 18 8 3 11 133 170
199 175 141 159 179 176 193 199 198 203 241 248 244 254 259 263 263 278 277 256 286 266 236 216 192 185 171 179 197 188 181 180 176 171 170 171 174 175 179 180 180 182 179 179 178 176 176 174 173 171 172 172 173 173 172 173 172 172 171 169 170 168 163 159 158 156 156 157 156 153 149 147 141 136 130 126 124 118 114 108 105 107 110 106 104 88 11 313 322 322 322 328 324 322 316 306 278
201 189 95 163 203 200 216 200 178 205 241 242 245 256 275 277 273 280 279 262 278 219 181 173 181 185 191 195 204 188 181 180 175 171 171 170 172 175 178 179 180 181 179 180 178 177 176 175 174 172 172 173 175 174 173 173 171 173 171 171 172 168 164 160 160 159 159 158 156 154 152 150 143 139 135 131 126 118 111 100 99 96 92 81 67 25 334 302 301 301 300 306 305 303 301 296 288
199 201 124 183 198 201 200 187 184 197 233 250 250 261 262 282 293 290 283 260 206 167 156 156 179 199 211 205 209 187 184 182 175 172 172 170 172 174 176 177 179 179 179 180 179 179 178 177 175 173 174 175 176 175 175 173 171 173 173 175 173 169 164 162 162 160 159 156 153 150 148 149 143 138 132 128 121 113 107 101 103 100 93 79 66 40 1 329 313 306 299 299 296 294 292 291 290
190 181 186 201 189 199 187 184 194 173 209 245 244 264 223 267 313 314 303 195 167 157 142 154 181 221 220 207 200 187 186 183 179 176 174 171 173 174 175 177 179 179 178 179 181 181 181 180 177 176 177 177 178 177 177 175 173 174 176 178 175 170 165 162 162 160 157 153 148 145 143 144 141 134 127 123 117 112 106 101 101 100 98 93 80 51 6 336 319 307 306 305 301 293 285 287 287
195 135 182 216 195 201 188 182 197 180 214 240 244 316 320 294 319 325 321 145 156 151 117 149 159 133 154 181 183 184 186 185 182 179 175 172 174 176 175 178 180 180 178 178 180 181 183 183 181 180 179 179 180 180 179 178 176 175 178 181 177 169 163 160 162 160 155 150 144 140 137 140 140 134 127 121 117 111 99 89 87 85 87 80 69 40 333 300 292 288 296 305 306 299 286 281 273
206 176 196 229 199 212 211 206 218 220 239 268 276 302 317 302 312 320 307 149 176 187 163 149 142 136 149 167 177 184 186 185 182 179 177 175 176 177 177 180 182 181 178 178 180 182 185 186 185 183 182 182 183 182 181 181 178 177 178 181 175 165 160 160 162 159 155 151 147 141 136 139 142 138 130 123 120 114 97 75 62 53 43 40 14 350 325 302 290 282 288 296 301 297 288 284 279
200 195 209 222 178 210 228 222 231 237 253 271 275 302 314 303 306 304 280 185 264 237 208 189 166 154 156 167 177 184 186 183 178 176 175 173 174 176 179 182 182 181 179 180 181 184 187 188 188 185 184 186 185 185 184 183 180 178 179 180 173 163 161 163 163 160 157 155 153 148 145 146 147 143 136 135 134 127 108 71 41 23 10 12 355 337 329 313 295 287 291 301 303 297 291 291 290
193 211 216 212 181 203 231 226 235 244 253 264 272 297 293 295 301 300 286 233 239 260 239 216 183 169 166 171 179 184 182 174 167 167 167 169 173 176 181 183 182 181 182 184 186 188 189 191 190 188 188 188 188 187 186 186 181 178 180 180 172 166 165 166 165 162 160 158 154 150 154 155 153 150 146 149 148 138 110 62 32 11 350 343 336 325 322 315 307 302 303 307 305 299 295 296 298
227 242 210 211 210 210 233 225 230 240 244 253 256 244 274 297 308 303 286 250 273 317 297 241 191 177 176 177 179 178 167 157 156 161 167 173 178 182 187 186 183 184 185 188 190 191 191 192 192 191 191 190 189 188 188 187 182 180 181 180 174 171 169 168 168 166 162 155 147 146 154 155 152 154 155 155 150 133 96 50 7 325 310 306 306 308 313 314 315 311 307 308 306 304 302 301 303
225 258 216 218 226 227 242 239 239 239 236 250 252 232 266 286 295 296 285 282 295 317 311 220 180 172 175 172 168 161 149 149 157 164 175 183 187 191 193 188 186 187 187 188 191 192 192 193 193 193 192 191 190 188 189 188 183 182 182 182 178 174 171 168 170 170 162 154 155 155 154 154 153 157 163 155 140 109 64 1 304 297 297 298 296 296 302 307 313 312 307 307 310 313 313 313 315
222 237 256 243 242 242 250 253 257 254 247 258 260 249 258 264 273 286 283 285 294 311 299 181 168 163 162 157 153 151 152 160 168 175 184 189 191 192 192 189 188 190 193 190 190 191 191 194 195 195 194 193 191 189 190 187 184 185 185 183 179 175 171 170 173 172 172 178 181 169 157 156 156 162 185 197 276 354 327 304 291 290 294 300 297 295 301 307 312 310 307 310 315 319 318 318 318
211 220 239 247 251 254 260 258 258 261 261 260 260 268 267 267 272 281 279 280 277 192 165 160 154 149 148 149 156 160 165 172 178 183 185 187 188 190 188 187 191 197 198 193 190 189 188 192 195 196 196 194 194 193 192 188 186 187 186 184 179 174 172 173 176 178 186 188 183 172 162 163 166 212 243 256 278 294 297 292 285 283 287 292 293 296 303 305 305 304 306 311 314 314 312 310 309
228 220 229 237 248 256 260 260 260 262 267 257 241 255 263 265 259 254 274 258 164 150 140 146 146 145 148 154 164 169 172 177 180 181 180 182 186 188 187 186 194 198 196 192 189 187 185 188 190 193 196 197 199 199 195 190 188 187 185 182 178 175 175 176 179 184 188 182 172 164 167 184 206 234 239 250 273 279 284 285 285 287 289 288 289 292 297 298 297 299 301 302 304 303 301 300 300
255 241 237 242 246 256 256 256 260 258 268 257 232 234 261 265 192 241 256 164 147 143 137 145 148 148 154 161 169 172 173 176 180 184 184 186 189 188 189 193 195 193 191 188 185 185 185 186 186 188 193 195 200 202 198 193 190 187 183 181 177 178 180 182 184 186 185 173 154 152 202 222 221 231 235 248 272 276 279 281 285 289 291 289 289 293 297 298 297 298 299 299 301 301 300 298 299
269 251 243 260 254 258 250 247 255 237 247 252 228 239 264 242 199 248 240 153 143 139 139 147 150 153 159 163 167 168 171 175 182 191 192 193 195 192 194 198 196 192 188 185 185 183 181 185 188 192 193 193 198 200 198 194 190 185 181 180 178 180 183 188 191 188 183 164 141 197 233 225 223 231 239 251 262 271 276 273 276 283 287 292 297 301 303 302 302 302 302 304 306 305 304 302 302
292 240 195 247 263 268 245 238 244 222 239 236 200 233 260 252 244 241 187 145 142 136 140 146 152 157 160 163 165 169 176 182 187 192 193 197 199 199 202 199 194 192 185 184 188 182 176 182 188 194 195 193 195 194 194 192 187 182 180 179 179 183 188 192 195 191 184 167 187 233 225 219 223 230 242 256 259 265 268 264 269 280 286 293 300 305 305 305 305 304 305 307 311 312 312 311 311
283 202 179 194 211 265 256 226 210 212 249 215 179 238 251 271 256 227 163 150 145 135 142 148 153 158 161 168 171 175 181 187 190 190 193 200 202 205 209 201 190 186 183 185 189 183 180 183 187 193 190 187 188 187 188 187 183 181 181 181 183 188 194 199 201 199 195 199 230 232 224 221 223 234 249 258 259 256 259 264 277 287 291 295 300 305 307 306 304 304 307 311 315 317 318 319 323
244 183 217 194 186 270 279 235 192 198 244 195 173 236 253 267 249 223 171 159 148 138 148 152 155 161 166 172 175 178 183 188 191 191 196 201 204 210 210 203 188 180 186 188 186 186 185 187 192 189 178 174 178 179 180 182 182 182 183 185 189 195 199 205 213 218 226 234 238 232 228 224 226 243 251 253 255 255 257 267 280 290 294 297 302 306 308 306 305 307 310 314 318 319 322 328 332
288 183 204 191 175 227 275 264 207 194 210 188 184 209 247 260 237 220 170 161 150 144 155 157 161 167 170 175 178 180 184 188 192 195 199 201 206 214 213 206 191 182 191 191 187 188 188 193 196 183 170 169 172 173 177 181 185 187 188 190 193 198 202 212 227 238 245 245 239 231 224 220 228 241 247 252 258 259 263 272 283 293 296 299 305 308 308 306 306 310 313 315 318 320 325 332 338
270 167 182 212 172 182 224 277 240 190 193 206 198 199 212 259 251 202 161 163 152 149 159 163 167 172 174 177 179 182 186 190 194 198 201 202 206 213 214 208 196 190 194 194 191 191 192 199 196 181 172 173 173 177 181 185 189 191 194 195 196 200 204 215 232 243 248 243 233 225 215 213 221 230 243 254 261 263 269 278 286 293 295 299 304 306 306 305 308 313 316 317 319 322 327 335 344
182 160 170 222 197 192 203 233 241 172 179 202 182 198 226 260 302 70 156 162 155 157 165 169 173 175 176 179 181 184 189 193 197 200 202 203 205 209 211 206 199 198 197 195 195 194 197 201 195 183 178 177 178 184 188 191 193 193 194 196 200 207 213 221 232 239 240 233 225 217 210 213 216 226 243 253 259 265 273 281 285 290 292 295 300 302 302 303 307 314 319 321 323 326 329 338 344
165 178 160 178 199 227 213 228 248 157 143 192 175 189 222 238 268 274 155 161 158 163 169 172 175 175 176 179 182 187 192 196 199 201 203 204 205 207 208 204 201 200 199 198 198 197 200 202 194 186 183 183 185 189 191 192 191 192 195 199 205 213 221 226 230 231 229 225 222 214 211 214 218 230 248 253 256 264 275 282 285 289 291 295 299 300 301 304 311 320 326 323 321 322 323 331 338
155 163 176 187 190 250 246 252 271 173 141 217 191 191 220 216 224 194 155 158 156 164 169 172 176 177 180 181 184 189 193 198 200 201 202 203 205 207 206 205 201 200 201 202 201 200 204 205 197 190 188 190 193 194 194 194 194 195 199 205 211 218 224 226 226 224 223 222 219 215 215 218 227 241 252 255 259 269 280 287 290 291 293 297 300 300 303 309 320 325 326 321 316 315 316 325 335
173 157 199 217 195 239 250 241 272 223 155 250 187 185 240 226 202 178 157 156 162 169 169 176 180 182 185 183 185 189 191 195 198 198 199 200 203 205 205 204 202 201 203 205 204 204 207 207 201 196 194 196 199 200 199 200 201 202 206 210 215 220 221 220 221 220 220 221 219 218 219 224 238 249 253 257 266 276 287 292 292 291 294 299 299 301 305 311 320 320 319 320 319 320 323 331 337
217 193 183 226 220 244 273 267 284 106 162 253 190 184 262 261 170 171 177 178 183 180 179 182 183 183 187 187 188 190 191 192 194 195 195 198 201 203 203 204 204 205 206 206 206 206 206 205 202 199 198 199 201 203 204 204 206 210 213 214 215 216 212 211 214 215 218 221 220 218 222 231 242 249 253 263 275 283 290 292 291 291 294 297 294 298 304 308 315 315 318 322 326 329 330 337 342
209 195 177 231 243 186 241 273 293 244 169 186 155 189 287 329 81 167 221 238 205 192 190 187 185 184 188 191 192 193 193 192 191 191 193 195 199 202 203 204 204 206 208 206 204 206 205 204 203 200 200 203 204 205 208 208 209 212 210 208 206 204 203 205 208 212 217 219 216 215 221 232 241 250 261 273 282 286 289 290 290 293 292 288 284 291 299 304 314 320 326 330 334 335 334 343 347
209 192 181 209 238 206 210 272 306 336 355 108 112 348 307 263 142 205 232 218 179 193 194 187 187 189 190 192 195 196 197 195 192 190 191 194 197 201 204 204 204 205 206 205 205 206 205 205 204 201 202 206 206 207 208 209 209 206 199 195 196 198 200 203 204 207 211 212 212 216 224 237 247 260 272 281 286 287 289 289 287 288 285 280 280 288 297 308 323 328 331 338 345 344 344 351 351
224 210 190 193 210 221 236 315 8 31 351 292 141 214 289 265 200 207 202 155 167 180 186 184 187 189 190 194 198 199 198 197 195 192 192 194 196 200 202 202 202 203 203 204 205 206 205 205 204 202 205 207 207 208 209 210 209 201 194 193 195 197 199 201 203 206 207 207 214 222 231 246 259 271 280 283 285 285 286 284 278 279 279 281 285 293 307 320 329 330 333 344 349 353 354 354 352
224 217 191 194 206 211 207 30 59 96 252 272 158 180 260 299 243 219 195 175 176 177 193 193 189 190 192 195 198 198 195 193 194 195 195 196 197 199 200 200 200 201 202 203 204 205 206 206 205 205 208 209 209 210 211 213 210 203 198 199 202 202 200 200 201 204 206 209 216 226 239 253 266 276 280 280 280 279 278 272 267 274 279 284 292 301 317 327 332 333 338 346 350 354 356 357 358
216 202 172 188 209 205 181 129 146 210 248 302 2 156 212 278 255 223 173 178 190 193 202 201 197 197 197 197 198 197 194 192 193 195 196 198 199 200 199 198 198 199 201 202 203 204 206 206 206 207 209 211 212 213 215 215 211 206 203 205 209 209 206 203 199 198 204 211 217 227 240 252 266 276 277 275 273 271 264 258 259 271 278 286 299 310 325 334 335 338 341 347 352 353 356 0 4
214 175 150 178 200 195 173 155 223 255 16 299 298 124 173 269 269 177 154 184 211 209 205 201 199 201 202 201 200 199 197 195 194 194 196 198 199 200 199 197 197 200 201 201 201 203 205 206 207 208 209 212 214 215 218 217 212 210 209 210 209 208 208 205 200 198 203 211 218 228 238 249 264 273 273 267 264 260 250 245 257 271 280 294 311 324 337 340 338 341 346 351 355 356 358 0 1
193 156 131 139 165 177 172 173 203 150 111 251 256 165 178 275 254 173 159 201 219 213 205 202 201 201 202 202 201 202 200 197 196 195 196 198 198 198 198 197 198 200 200 199 200 202 205 206 207 208 210 213 215 218 220 216 212 212 215 213 208 206 205 202 198 199 206 213 220 228 237 247 262 269 265 258 252 248 240 239 258 271 287 310 329 340 344 342 341 347 354 359 1 360 358 357 355
151 151 155 67 27 117 149 136 126 116 238 251 236 180 179 262 251 188 186 211 207 193 188 198 203 203 201 201 200 201 201 198 196 195 196 197 196 194 195 196 197 198 198 198 200 203 204 205 206 209 212 215 218 219 216 213 213 214 213 211 209 207 204 201 200 203 209 217 223 230 239 249 261 261 251 245 238 230 229 238 256 274 307 331 339 342 344 345 349 355 360 4 4 358 354 354 353
148 150 166 200 318 355 69 28 81 168 243 259 231 178 174 226 249 209 215 226 204 180 187 191 197 201 199 199 199 199 199 197 195 194 194 194 193 193 194 195 195 196 196 198 201 204 203 203 205 210 214 216 215 213 208 207 213 215 210 206 208 210 208 205 206 210 216 224 230 236 243 252 259 255 238 222 218 217 223 238 255 293 333 339 332 333 344 351 356 356 358 2 0 354 355 356 353
164 154 149 167 249 265 203 219 179 206 242 258 221 161 178 231 242 216 216 226 211 192 196 191 190 193 194 194 195 196 196 194 193 192 192 192 191 191 193 195 197 196 196 199 203 204 203 204 207 209 211 209 207 205 203 204 209 213 208 204 208 211 211 210 212 218 225 232 239 244 249 255 259 255 229 211 214 218 223 234 259 324 324 320 319 333 349 351 352 353 353 356 355 355 1 0 355
172 169 158 167 173 175 209 223 192 224 250 263 230 167 230 257 260 227 212 219 216 205 201 195 191 189 188 188 189 192 193 192 193 191 191 192 189 188 193 199 200 197 197 200 203 203 204 205 206 205 203 202 202 202 204 206 207 207 205 205 208 210 210 212 216 222 229 238 245 246 248 253 254 245 221 212 214 215 215 209 187 286 295 305 318 340 344 345 353 353 352 355 354 3 9 5 2
170 153 133 154 161 162 193 198 178 202 255 272 217 163 205 202 258 260 228 223 209 192 186 184 185 186 183 183 185 187 188 188 190 190 190 191 191 191 196 201 201 199 198 200 202 204 204 205 203 200 198 199 201 203 204 206 205 203 204 204 207 209 211 214 219 225 232 241 244 242 244 244 237 244 231 209 203 192 175 166 179 246 287 296 318 339 340 351 357 348 352 358 358 9 13 6 6
177 125 121 179 186 154 153 180 173 175 218 260 208 193 221 199 288 318 300 159 151 154 155 156 167 176 176 178 183 185 185 185 186 188 189 192 192 193 196 198 200 201 200 199 202 204 204 203 200 198 199 200 203 206 205 205 204 203 202 203 205 208 212 217 221 227 234 238 239 239 242 239 238 252 226 197 184 168 167 178 185 232 269 285 322 350 354 4 353 342 356 1 1 9 6 2 7
166 154 169 198 173 146 154 229 165 106 169 235 244 220 281 290 314 345 35 108 133 143 147 152 161 168 172 179 183 184 185 184 185 187 190 192 193 193 194 196 199 201 201 200 203 206 204 202 199 197 200 201 203 207 208 205 204 202 200 202 206 208 213 218 222 229 234 233 231 232 233 236 241 235 201 190 181 172 173 176 190 232 256 285 14 39 29 12 343 344 360 359 1 8 359 358 7
140 184 195 158 123 129 109 196 348 58 170 245 280 199 249 221 239 327 23 115 153 155 153 156 159 165 175 183 184 186 187 186 185 186 190 193 194 193 193 196 199 202 201 200 203 207 205 203 201 199 201 203 203 205 206 206 204 202 201 202 206 208 212 218 222 229 233 229 226 227 228 235 233 206 191 192 186 179 179 180 197 225 235 172 76 73 33 0 337 348 3 5 10 11 0 2 9
149 175 182 150 150 203 112 162 183 129 178 234 295 254 234 195 211 265 233 185 177 166 160 161 163 171 180 184 186 188 187 186 185 186 191 195 195 195 193 196 199 200 201 200 202 207 207 204 202 202 204 206 205 203 203 205 205 203 204 206 207 209 212 216 220 225 228 226 227 229 229 232 216 191 190 196 193 192 193 187 193 214 203 127 106 93 4 349 343 356 10 17 27 26 12 15 15
153 151 171 155 153 174 171 169 168 162 184 199 225 321 261 230 213 193 201 199 177 168 173 176 179 182 183 182 185 188 186 185 187 188 194 197 196 193 191 194 197 198 200 200 201 206 207 204 202 202 206 206 204 203 202 204 204 204 207 207 206 210 213 215 219 223 224 223 227 231 232 227 205 191 193 200 202 203 196 160 146 184 171 133 128 70 0 358 355 8 19 26 37 38 23 21 20
168 166 171 163 151 144 155 179 140 140 158 171 174 229 258 255 211 184 196 193 181 182 183 184 187 185 184 182 183 185 185 186 189 191 192 195 195 192 190 193 194 194 199 201 201 204 205 205 203 202 204 204 201 202 203 204 205 205 207 206 205 209 212 215 220 222 222 224 228 230 229 220 205 197 199 205 210 203 165 110 131 170 160 138 128 9 9 2 1 13 23 29 39 37 27 28 27
165 174 176 171 165 135 135 212 247 114 149 172 158 196 262 264 216 202 198 183 187 192 185 185 185 181 182 183 183 183 184 187 191 192 190 190 194 192 191 193 191 191 200 203 202 203 203 205 205 201 201 203 202 202 203 204 204 202 203 205 206 209 212 217 220 221 221 224 227 227 224 215 206 201 203 210 213 190 139 115 140 167 159 142 112 11 357 350 355 11 21 30 39 38 36 40 40